Location: Arcueil
(48.7999°N, 2.3326°E)
Time: 18:26:00
(UTC+00:00)

EO-79 - Pass Details

Date: 18 June 2024
Orbit: 555 x 577 km, 98.0° (Epoch: 18 July)

Event Time Altitude Azimuth Distance (km) Brightness Sun altitude
Rises 02:27:20 0° 24° (NNE) 2,764 ? -9.9°
Reaches altitude 10° 02:29:46 10° 37° (NE) 1,859 ? -9.6°
Maximum altitude 02:33:11 26° 95° (E) 1,116 ? -9.3°
Drops below altitude 10° 02:36:33 10° 153° (SSE) 1,837 ? -9.0°
Sets 02:38:55 0° 166° (SSE) 2,725 ? -8.7°
